When you browse on this site, cookies collect data to enhance your experience and personalize the content and advertising you see.
Visit our Privacy Policy to learn more. By continuing to use the site, you agree to this use of cookies and data.
  • In Romania
  • List of Countries
  • For 7 days
  • Water Temperature
  • Satellite Maps
  • Weather Map
  • Weather Widgets
  • user-avatar
    Login

    Hourly Weather Athens

    Today, 26 May, Sunday

    Time Temperature Precipitation Wind Pressure Humidity
    00:00 +22°C° 0 mm 1 mps 753 mmHg 60%
    01:00 +22°C° 0 mm 1 mps 753 mmHg 62%
    02:00 +22°C° 0 mm 1 mps 753 mmHg 63%
    03:00 +22°C° 0 mm 1 mps 752 mmHg 63%
    04:00 +21°C° 0 mm 1 mps 752 mmHg 64%
    05:00 +21°C° 0 mm 1 mps 752 mmHg 65%
    06:00 +20°C° 0 mm 0 mps 752 mmHg 60%
    07:00 +21°C° 0 mm 0 mps 753 mmHg 55%
    08:00 +22°C° 0 mm 0 mps 753 mmHg 50%
    09:00 +25°C° 0 mm 1 mps 753 mmHg 46%
    10:00 +27°C° 0 mm 2 mps 753 mmHg 42%
    11:00 +28°C° 0 mm 3 mps 754 mmHg 38%
    12:00 +28°C° 0 mm 3 mps 754 mmHg 37%
    13:00 +28°C° 0 mm 3 mps 753 mmHg 37%
    14:00 +29°C° 0 mm 4 mps 753 mmHg 36%
    15:00 +28°C° 0 mm 4 mps 753 mmHg 37%
    16:00 +28°C° 0 mm 3 mps 753 mmHg 38%
    17:00 +28°C° 0 mm 3 mps 753 mmHg 39%
    18:00 +27°C° 0 mm 3 mps 752 mmHg 42%
    19:00 +26°C° 0 mm 2 mps 752 mmHg 45%
    20:00 +25°C° 0 mm 2 mps 752 mmHg 48%
    21:00 +24°C° 0 mm 1 mps 752 mmHg 51%
    22:00 +24°C° 0 mm 1 mps 753 mmHg 53%
    23:00 +23°C° 0 mm 1 mps 753 mmHg 56%

    Tomorrow, 27 May, Monday

    Time Temperature Precipitation Wind Pressure Humidity
    00:00 +23°C° 0 mm 1 mps 752 mmHg 57%
    01:00 +21°C° 0 mm 0 mps 752 mmHg 58%
    02:00 +20°C° 0 mm 0 mps 752 mmHg 59%
    03:00 +20°C° 0 mm 0 mps 752 mmHg 58%
    04:00 +22°C° 0 mm 1 mps 752 mmHg 58%
    05:00 +22°C° 0 mm 1 mps 751 mmHg 57%
    06:00 +23°C° 0 mm 1 mps 751 mmHg 53%
    07:00 +24°C° 0 mm 1 mps 752 mmHg 49%
    08:00 +25°C° 0 mm 1 mps 752 mmHg 44%
    09:00 +26°C° 0 mm 1 mps 752 mmHg 41%
    10:00 +27°C° 0 mm 2 mps 752 mmHg 38%
    11:00 +28°C° 0 mm 2 mps 752 mmHg 35%
    12:00 +28°C° 0 mm 2 mps 752 mmHg 34%
    13:00 +29°C° 0 mm 2 mps 752 mmHg 33%
    14:00 +29°C° 0 mm 3 mps 751 mmHg 33%
    15:00 +29°C° 0 mm 3 mps 751 mmHg 33%
    16:00 +29°C° 0 mm 3 mps 751 mmHg 33%
    17:00 +29°C° 0 mm 3 mps 750 mmHg 33%
    18:00 +28°C° 0 mm 3 mps 750 mmHg 38%
    19:00 +27°C° 0 mm 3 mps 750 mmHg 43%
    20:00 +25°C° 0 mm 2 mps 750 mmHg 49%
    21:00 +25°C° 0 mm 2 mps 750 mmHg 53%
    22:00 +24°C° 0 mm 2 mps 750 mmHg 56%
    23:00 +24°C° 0 mm 1 mps 750 mmHg 60%

    Day after tomorrow, 28 May, Tuesday

    Time Temperature Precipitation Wind Pressure Humidity
    00:00 +23°C° 0 mm 1 mps 750 mmHg 62%
    01:00 +23°C° 0 mm 1 mps 750 mmHg 63%
    02:00 +23°C° 0 mm 1 mps 750 mmHg 65%
    03:00 +22°C° 0 mm 1 mps 750 mmHg 66%
    04:00 +22°C° 0 mm 1 mps 749 mmHg 67%
    05:00 +22°C° 0 mm 1 mps 749 mmHg 68%
    06:00 +23°C° 0 mm 1 mps 749 mmHg 64%
    07:00 +24°C° 0 mm 2 mps 749 mmHg 59%
    08:00 +25°C° 0 mm 2 mps 749 mmHg 55%
    09:00 +26°C° 0 mm 2 mps 750 mmHg 51%
    10:00 +27°C° 0 mm 3 mps 750 mmHg 47%
    11:00 +28°C° 0 mm 3 mps 750 mmHg 43%
    12:00 +28°C° 0 mm 3 mps 750 mmHg 42%
    13:00 +29°C° 0 mm 4 mps 749 mmHg 40%
    14:00 +30°C° 0 mm 4 mps 749 mmHg 38%
    15:00 +29°C° 0 mm 4 mps 749 mmHg 39%
    16:00 +29°C° 0 mm 4 mps 749 mmHg 40%
    17:00 +29°C° 0 mm 3 mps 749 mmHg 41%
    18:00 +28°C° 0 mm 3 mps 749 mmHg 44%
    19:00 +27°C° 0 mm 2 mps 749 mmHg 47%
    20:00 +26°C° 0 mm 2 mps 749 mmHg 50%
    21:00 +25°C° 0 mm 3 mps 749 mmHg 52%
    22:00 +25°C° 0 mm 3 mps 750 mmHg 53%
    23:00 +23°C° 0 mm 4 mps 750 mmHg 54%

    29 May, Wednesday

    Time Temperature Precipitation Wind Pressure Humidity
    00:00 +22°C° 0 mm 4 mps 750 mmHg 57%
    01:00 +22°C° 0 mm 4 mps 750 mmHg 60%
    02:00 +21°C° 0 mm 4 mps 750 mmHg 63%
    03:00 +21°C° 0 mm 3 mps 750 mmHg 65%
    04:00 +20°C° 0 mm 3 mps 750 mmHg 67%
    05:00 +20°C° 0 mm 3 mps 750 mmHg 69%
    06:00 +21°C° 0 mm 3 mps 750 mmHg 65%
    07:00 +22°C° 0 mm 3 mps 750 mmHg 60%
    08:00 +24°C° 0 mm 3 mps 750 mmHg 56%
    09:00 +25°C° 0 mm 2 mps 751 mmHg 51%
    10:00 +27°C° 0 mm 2 mps 751 mmHg 46%
    11:00 +28°C° 0 mm 2 mps 751 mmHg 42%
    12:00 +29°C° 0 mm 2 mps 751 mmHg 39%
    13:00 +30°C° 0 mm 3 mps 751 mmHg 37%
    14:00 +31°C° 0 mm 3 mps 751 mmHg 35%
    15:00 +30°C° 0 mm 3 mps 751 mmHg 36%
    16:00 +30°C° 0 mm 3 mps 751 mmHg 36%
    17:00 +30°C° 0 mm 4 mps 751 mmHg 37%
    18:00 +29°C° 0 mm 3 mps 751 mmHg 42%
    19:00 +27°C° 0 mm 3 mps 751 mmHg 48%
    20:00 +26°C° 0 mm 2 mps 751 mmHg 53%
    21:00 +26°C° 0 mm 2 mps 751 mmHg 54%
    22:00 +25°C° 0 mm 2 mps 751 mmHg 56%
    23:00 +25°C° 0 mm 2 mps 751 mmHg 57%

    30 May, Thursday

    Time Temperature Precipitation Wind Pressure Humidity
    00:00 +24°C° 0 mm 2 mps 751 mmHg 58%
    01:00 +24°C° 0 mm 2 mps 751 mmHg 59%
    02:00 +22°C° 0 mm 3 mps 751 mmHg 60%
    03:00 +22°C° 0 mm 3 mps 751 mmHg 61%
    04:00 +21°C° 0 mm 3 mps 751 mmHg 61%
    05:00 +21°C° 0 mm 3 mps 751 mmHg 62%
    06:00 +22°C° 0 mm 3 mps 751 mmHg 57%
    07:00 +24°C° 0 mm 3 mps 752 mmHg 52%
    08:00 +26°C° 0 mm 3 mps 752 mmHg 48%
    09:00 +27°C° 0 mm 2 mps 752 mmHg 42%
    10:00 +28°C° 0 mm 2 mps 752 mmHg 37%
    11:00 +30°C° 0 mm 2 mps 753 mmHg 32%
    12:00 +31°C° 0 mm 2 mps 752 mmHg 30%
    13:00 +31°C° 0 mm 2 mps 752 mmHg 28%
    14:00 +32°C° 0 mm 2 mps 752 mmHg 26%
    15:00 +32°C° 0 mm 2 mps 752 mmHg 28%
    16:00 +33°C° 0 mm 3 mps 752 mmHg 30%
    17:00 +31°C° 0 mm 3 mps 752 mmHg 31%
    18:00 +30°C° 0 mm 3 mps 752 mmHg 35%
    19:00 +29°C° 0 mm 2 mps 752 mmHg 39%
    20:00 +28°C° 0 mm 2 mps 752 mmHg 43%
    21:00 +27°C° 0 mm 2 mps 752 mmHg 44%
    22:00 +27°C° 0 mm 2 mps 752 mmHg 45%
    23:00 +26°C° 0 mm 2 mps 752 mmHg 46%

    31 May, Friday

    Time Temperature Precipitation Wind Pressure Humidity
    00:00 +26°C° 0 mm 2 mps 752 mmHg 47%
    01:00 +25°C° 0 mm 2 mps 752 mmHg 48%
    02:00 +25°C° 0 mm 2 mps 751 mmHg 48%
    03:00 +24°C° 0 mm 3 mps 751 mmHg 49%
    04:00 +24°C° 0 mm 3 mps 751 mmHg 51%
    05:00 +22°C° 0 mm 3 mps 751 mmHg 52%
    06:00 +24°C° 0 mm 3 mps 751 mmHg 49%
    07:00 +25°C° 0 mm 3 mps 752 mmHg 46%
    08:00 +26°C° 0 mm 3 mps 752 mmHg 43%
    09:00 +27°C° 0 mm 3 mps 752 mmHg 40%
    10:00 +28°C° 0 mm 2 mps 752 mmHg 37%
    11:00 +29°C° 0 mm 2 mps 752 mmHg 35%
    12:00 +30°C° 0 mm 2 mps 752 mmHg 33%
    13:00 +30°C° 0 mm 2 mps 751 mmHg 31%
    14:00 +31°C° 0 mm 2 mps 751 mmHg 29%
    15:00 +30°C° 0 mm 3 mps 751 mmHg 33%
    16:00 +29°C° 0 mm 3 mps 751 mmHg 36%
    17:00 +28°C° 0 mm 4 mps 751 mmHg 40%
    18:00 +28°C° 0 mm 3 mps 751 mmHg 42%
    19:00 +27°C° 0 mm 2 mps 752 mmHg 44%
    20:00 +26°C° 0 mm 2 mps 752 mmHg 45%
    21:00 +26°C° 0 mm 2 mps 752 mmHg 46%
    22:00 +25°C° 0 mm 2 mps 752 mmHg 46%
    23:00 +25°C° 0 mm 2 mps 752 mmHg 47%
    Show more